Weather History for Las Americas, Dominican Republic

Change the Weather History Date:

Friday, February 8, 2013

  Actual Average Record
Temperature  
Mean Temperature 76 °F -  
Max Temperature 84 °F 85 °F 87 °F (2011)
Min Temperature 67 °F 66 °F 64 °F (1999)
Cooling Degree Days 10    
Growing Degree Days 26 (Base 50)    
Moisture  
Dew Point 70 °F    
Average Humidity 83    
Maximum Humidity 100    
Minimum Humidity 56    
Precipitation  
Precipitation 0.00 in 0.05 in - ()
Sea Level Pressure  
Sea Level Pressure 29.97 in    
Wind  
Wind Speed 4 mph ()    
Max Wind Speed 9 mph    
Max Gust Speed -    
Visibility 6.3 miles    
Events Rain    
Averages and records for this station are not official NWS values.
T = Trace of Precipitation, MM = Missing Value Source: Averaged Metar Reports

Daily Weather History Graph

Daily Weather History Graph

Search for Another Location

Airport:

Trip Planner

Search our weather history database for the weather conditions in past years. The results will help you decide how hot, cold, wet, or windy it might be!

Date:

Astronomy

Feb. 08, 2013 Rise Set
Actual Time 7:09 AM AST 6:36 PM AST
Civil Twilight 6:47 AM AST 6:58 PM AST
Nautical Twilight 6:21 AM AST 7:24 PM AST
Astronomical Twilight 5:55 AM AST 7:50 PM AST
Moon 5:28 AM AST (2/8) 5:09 PM AST (2/8)
Length of Visible Light 12h 11m
Length of Day
11h 26m
Waning Crescent, 4% of the Moon is Illuminated
Feb 8
Waning Crescent
Feb 10
New
Feb 17
First Quarter
Feb 25
Full
Mar 4
Last Quarter

Hourly Weather History & Observations

Time (AST) Temp. Heat Index Dew Point Humidity Pressure Visibility Wind Dir Wind Speed Gust Speed Precip Events Conditions
12:00 AM 73.4 °F - 71.6 °F 94% 30.01 in 6.2 mi Variable 3.5 mph - N/A   Mostly Cloudy
1:00 AM 71.6 °F - 69.8 °F 94% 29.98 in 6.2 mi North 4.6 mph - N/A   Mostly Cloudy
2:00 AM 69 °F - 68 °F 96% 29.97 in 7 mi NNE 4.5 mph - -   Haze
2:00 AM 69.8 °F - 68.0 °F 94% 29.95 in 6.2 mi NNE 4.6 mph - N/A   Mostly Cloudy
3:00 AM 69.8 °F - 68.0 °F 94% 29.95 in 6.2 mi NNE 5.8 mph - N/A   Mostly Cloudy
4:00 AM 68.0 °F - 68.0 °F 100% 29.92 in 6.2 mi NNE 4.6 mph - N/A   Mostly Cloudy
5:00 AM 68.0 °F - 68.0 °F 100% 29.92 in 6.2 mi Calm Calm - N/A   Mostly Cloudy
6:00 AM 68.0 °F - 66.2 °F 94% 29.95 in 6.2 mi North 4.6 mph - N/A   Scattered Clouds
7:00 AM 68.0 °F - 66.2 °F 94% 29.95 in 6.2 mi NE 4.6 mph - N/A   Scattered Clouds
8:00 AM 70 °F - 68 °F 93% 29.99 in 7 mi Calm Calm - -   Haze
8:00 AM 69.8 °F - 68.0 °F 94% 29.98 in 6.2 mi Calm Calm - N/A   Scattered Clouds
9:00 AM 73.4 °F - 69.8 °F 88% 30.01 in 6.2 mi NE 5.8 mph - N/A   Scattered Clouds
10:00 AM 78.8 °F - 73.4 °F 83% 30.01 in 6.2 mi ENE 6.9 mph - N/A   Partly Cloudy
11:00 AM 82.4 °F 88.2 °F 73.4 °F 74% 30.01 in 6.2 mi ENE 6.9 mph - N/A   Scattered Clouds
12:00 PM 82.4 °F 88.2 °F 73.4 °F 74% 30.01 in 6.2 mi East 5.8 mph - N/A   Mostly Cloudy
1:00 PM 82.4 °F 87.2 °F 71.6 °F 70% 29.98 in 6.2 mi SSE 8.1 mph - N/A   Mostly Cloudy
1:04 PM - - - N/A% 29.98 in 5.0 mi SSE 8.1 mph - N/A Rain Light Rain
2:00 PM 84.2 °F 89.6 °F 71.6 °F 66% 29.98 in 6.2 mi South 8.1 mph - N/A   Scattered Clouds
3:00 PM 82.4 °F 86.3 °F 69.8 °F 66% 29.95 in 5.0 mi South 6.9 mph - N/A Rain Rain
4:00 PM 84.2 °F 87.3 °F 68.0 °F 58% 29.92 in 6.2 mi South 5.8 mph - N/A   Scattered Clouds
5:00 PM 84 °F - 71 °F 56% 29.94 in 9 mi SSE 4.5 mph - -   Haze
5:00 PM 84.2 °F 89.6 °F 71.6 °F 66% 29.92 in 6.2 mi SSE 4.6 mph - N/A   Scattered Clouds
6:00 PM 82.4 °F 86.3 °F 69.8 °F 66% 29.92 in 6.2 mi SSE 9.2 mph - N/A   Partly Cloudy
7:00 PM 78.8 °F - 71.6 °F 78% 29.95 in 6.2 mi SE 6.9 mph - N/A   Scattered Clouds
8:00 PM 77.0 °F - 71.6 °F 83% 29.95 in 6.2 mi SE 9.2 mph - N/A   Scattered Clouds
9:00 PM 77.0 °F - 73.4 °F 89% 29.98 in 6.2 mi ESE 9.2 mph - N/A   Scattered Clouds
10:00 PM 77.0 °F - 73.4 °F 89% 29.98 in 6.2 mi Variable 3.5 mph - N/A   Scattered Clouds
11:00 PM 77.0 °F - 73.4 °F 89% 29.98 in 6.2 mi NE 6.9 mph - N/A   Scattered Clouds